(450649) 2006 UY64 |
ephemeris |
date |
magn |
radius |
delta |
ra |
dec |
elong |
phase |
Today | 18 Oct 2025 | 20.7 | 1.077 AU | 0.568 AU | 08h46m | +40°09' | 82.1° | 66.4° |
(450649) 2006 UY64 - 2025-10-18
astro.vanbuitenen.nl
The interactive orbit chart above shows the body's path through the solar system and its position at the given date.
Green and blue lines are shown perpendicular to the ecliptic plane: Green if the path is above the ecliptic plane, blue if it is below.
(Left-click and drag to rotate the view; Right-click and drag to move the view; Use scroll wheel to zoom in our out.)
The orbital elements of 2006 UY64 are:
e (Eccentricity) : 0.1573628
a (Semimajor axis) : 0.9316231
i (Inclination) : 26.21693
Ω (Longitude of ascending node) : 30.76880
ω (Argument of perihelion) : 210.81094
M (Mean anomaly) : 351.23711
Epoch : 2025 May 05
L (Longitude of perihelion) : 58.91682
B (Latitude of perihelion) : -13.07805
P (Orbital period in years) : 0.90
The light curve chart below shows the estimated development of the minor planet's magnitude.
The all-sky chart below shows the path of the minor planet over the same period as the light curve. The current position is marked yellow.
The following chart shows the path of the minor planet in the next few days. The field of view is optimized for (~10x50) binoculars and finderscopes.
Ephemerides:
Date Time RA (2000) DEC (2000) delta radius elong phase PA magn
2025-10-18 00:00 UT 08 46 10.2 +40 09 53 0.568 1.077 82.1 66.4 290 20.7
2025-10-18 15:26 UT 08 49 33.1 +40 28 04 0.567 1.078 82.2 66.3 290 20.7
2025-10-19 00:00 UT 08 51 26.5 +40 38 02 0.567 1.078 82.3 66.3 290 20.7
2025-10-20 00:00 UT 08 56 47.5 +41 05 36 0.565 1.078 82.4 66.3 291 20.7
2025-10-21 00:00 UT 09 02 13.1 +41 32 32 0.563 1.078 82.5 66.3 291 20.7
2025-10-22 00:00 UT 09 07 43.2 +41 58 48 0.561 1.078 82.6 66.3 292 20.7
2025-10-23 00:00 UT 09 13 17.9 +42 24 23 0.560 1.078 82.7 66.3 293 20.7
2025-10-24 00:00 UT 09 18 57.1 +42 49 14 0.558 1.078 82.8 66.3 293 20.6
2025-10-25 00:00 UT 09 24 40.6 +43 13 18 0.556 1.078 82.9 66.3 294 20.6
Terminology:
delta: distance between minor planet and earth in AU
radius: distance between minor planet and sun in AU
magn: magnitude (brightness) estimate
ra: right ascension in hours (24h = 360deg)
dec: declination in degrees
elong: elongation in degrees (angle sun-earth-minor planet)
phase: phase angle in degrees (angle sun-minor planet-earth)
AU: Astronomical Unit (mean distance between earth and sun: 149597870.7 km
Orbital elements provided by the MPC (Minor Planet Center).
Calculations by a modified version of AAPlus, a C# implementation of the AA+ project by PJ Naughter from the algorithms presented in the book "Astronomical Algorithms" by Jean Meeus.
NGC2000 dso catalog and star labels from VizieR as provided by the Strasbourg astronomical Data Center.
Tycho2 catalog from the ESO archive.